Location: Caracas
(10.5033°N, 66.8422°W)
Time: 09:35:21
(UTC-04:00)

Hubble Space Telescope - Visible Passes

Search period start: 17 July 2018 00:00
Search period end: 27 July 2018 00:00
Orbit: 537 x 541 km, 28.5° (Epoch: 16 July)

Date Brightness Start Highest point End Pass type
(mag) Time Alt. Az. Time Alt. Az. Time Alt. Az.
21 Jul 3.7 05:07:34 10° N 05:08:37 11° NNE 05:09:41 10° NNE visible
22 Jul 3.6 04:56:25 10° NNW 04:58:26 13° NNE 05:00:25 10° NE visible
22 Jul 2.8 20:15:40 10° SSW 20:16:51 16° S 20:16:51 16° S visible
23 Jul 3.5 04:45:36 10° NNW 04:48:13 16° NNE 04:50:49 10° ENE visible
23 Jul 1.6 20:04:54 10° SSW 20:08:17 31° SSE 20:08:17 31° SSE visible
24 Jul 3.1 04:34:54 10° NNW 04:37:58 20° NNE 04:41:04 10° ENE visible
24 Jul 1.1 19:54:16 10° SW 19:58:13 44° SSE 19:59:43 31° E visible
25 Jul 2.7 04:26:00 20° NNW 04:27:42 26° NNE 04:31:09 10° E visible
25 Jul 0.7 19:43:46 10° SW 19:47:52 64° SSE 19:51:06 16° ENE visible
25 Jul 3.8 21:25:45 10° WNW 21:26:31 14° WNW 21:26:31 14° WNW visible
26 Jul 2.2 04:17:17 33° NNE 04:17:24 34° NNE 04:21:09 10° E visible
26 Jul 0.7 19:33:21 10° WSW 19:37:30 89° NNW 19:41:39 10° ENE visible
26 Jul 3.5 21:15:52 10° WNW 21:17:46 17° NW 21:17:46 17° NW visible
